Time,TemperatureF,DewpointF,PressureIn,WindDirection,WindDirectionDegrees,WindSpeedMPH,WindSpeedGustMPH,Humidity,HourlyPrecipIn,Conditions,Clouds,dailyrainin,SoftwareType,DateUTC
2013-06-11 00:12:00,52.0,42.0,-100.00,NE,47,2.0,4.0,69,-99.99,,,0.00,,2013-06-11 06:12:00,
2013-06-11 00:22:00,52.0,42.0,-100.00,NE,47,2.0,4.0,69,-99.99,,,0.00,,2013-06-11 06:22:00,
2013-06-11 01:12:00,52.0,44.0,-100.00,ENE,71,5.0,6.0,74,0.00,,,0.00,,2013-06-11 07:12:00,
2013-06-11 01:22:00,52.0,44.0,-100.00,ENE,71,5.0,6.0,74,0.00,,,0.00,,2013-06-11 07:22:00,
2013-06-11 01:32:00,52.0,44.0,-100.00,ENE,71,5.0,6.0,74,0.00,,,0.00,,2013-06-11 07:32:00,
2013-06-11 01:42:00,52.0,44.0,-100.00,ENE,71,5.0,6.0,74,0.00,,,0.00,,2013-06-11 07:42:00,
2013-06-11 01:52:00,52.0,44.0,-100.00,ENE,71,5.0,6.0,74,0.00,,,0.00,,2013-06-11 07:52:00,
2013-06-11 02:12:00,55.0,43.0,-100.00,NE,51,1.0,2.0,64,0.00,,,0.00,,2013-06-11 08:12:00,
2013-06-11 02:22:00,55.0,43.0,-100.00,NE,51,1.0,2.0,64,0.00,,,0.00,,2013-06-11 08:22:00,
2013-06-11 02:32:00,55.0,43.0,-100.00,NE,51,1.0,2.0,64,0.00,,,0.00,,2013-06-11 08:32:00,
2013-06-11 02:42:00,55.0,43.0,-100.00,NE,51,1.0,2.0,64,0.00,,,0.00,,2013-06-11 08:42:00,
2013-06-11 02:52:00,55.0,43.0,-100.00,NE,51,1.0,2.0,64,0.00,,,0.00,,2013-06-11 08:52:00,
2013-06-11 03:12:00,57.0,41.0,-100.00,NW,324,2.0,5.0,56,0.00,,,0.00,,2013-06-11 09:12:00,
2013-06-11 03:22:00,57.0,41.0,-100.00,NW,324,2.0,5.0,56,0.00,,,0.00,,2013-06-11 09:22:00,
2013-06-11 03:33:00,57.0,41.0,-100.00,NW,324,2.0,5.0,56,0.00,,,0.00,,2013-06-11 09:33:00,
2013-06-11 03:43:00,57.0,41.0,-100.00,NW,324,2.0,5.0,56,0.00,,,0.00,,2013-06-11 09:43:00,
2013-06-11 03:53:00,57.0,41.0,-100.00,NW,324,2.0,5.0,56,0.00,,,0.00,,2013-06-11 09:53:00,
2013-06-11 04:12:00,54.0,41.0,-100.00,ENE,58,4.0,6.0,61,0.00,,,0.00,,2013-06-11 10:12:00,
2013-06-11 04:22:00,54.0,41.0,-100.00,ENE,58,4.0,6.0,61,0.00,,,0.00,,2013-06-11 10:22:00,
2013-06-11 04:33:00,54.0,41.0,-100.00,ENE,58,4.0,6.0,61,0.00,,,0.00,,2013-06-11 10:33:00,
2013-06-11 04:42:00,54.0,41.0,-100.00,ENE,58,4.0,6.0,61,0.00,,,0.00,,2013-06-11 10:42:00,
2013-06-11 04:52:00,54.0,41.0,-100.00,ENE,58,4.0,6.0,61,0.00,,,0.00,,2013-06-11 10:52:00,
2013-06-11 05:12:00,50.0,43.0,-100.00,SE,137,2.0,4.0,77,0.00,,,0.00,,2013-06-11 11:12:00,
2013-06-11 05:22:00,50.0,43.0,-100.00,SE,137,2.0,4.0,77,0.00,,,0.00,,2013-06-11 11:22:00,
2013-06-11 05:32:00,50.0,43.0,-100.00,SE,137,2.0,4.0,77,0.00,,,0.00,,2013-06-11 11:32:00,
2013-06-11 05:41:00,50.0,43.0,-100.00,SE,137,2.0,4.0,77,0.00,,,0.00,,2013-06-11 11:41:00,
2013-06-11 05:52:00,50.0,43.0,-100.00,SE,137,2.0,4.0,77,0.00,,,0.00,,2013-06-11 11:52:00,
2013-06-11 06:12:00,46.0,42.0,-100.00,East,82,2.0,5.0,86,0.00,,,-99.99,,2013-06-11 12:12:00,
2013-06-11 06:22:00,46.0,42.0,-100.00,East,82,2.0,5.0,86,0.00,,,-99.99,,2013-06-11 12:22:00,
2013-06-11 06:32:00,46.0,42.0,-100.00,East,82,2.0,5.0,86,0.00,,,-99.99,,2013-06-11 12:32:00,
2013-06-11 06:42:00,46.0,42.0,-100.00,East,82,2.0,5.0,86,0.00,,,-99.99,,2013-06-11 12:42:00,
2013-06-11 07:12:00,48.0,43.0,-100.00,NW,322,1.0,1.0,81,0.00,,,0.00,,2013-06-11 13:12:00,
2013-06-11 07:22:00,48.0,43.0,-100.00,NW,322,1.0,1.0,81,0.00,,,0.00,,2013-06-11 13:22:00,
2013-06-11 07:32:00,48.0,43.0,-100.00,NW,322,1.0,1.0,81,0.00,,,0.00,,2013-06-11 13:32:00,
2013-06-11 07:42:00,48.0,43.0,-100.00,NW,322,1.0,1.0,81,0.00,,,0.00,,2013-06-11 13:42:00,
2013-06-11 07:52:00,48.0,43.0,-100.00,NW,322,1.0,1.0,81,0.00,,,0.00,,2013-06-11 13:52:00,
2013-06-11 08:12:00,61.0,45.0,-100.00,East,89,2.0,5.0,56,0.00,,,0.00,,2013-06-11 14:12:00,
2013-06-11 08:22:00,61.0,45.0,-100.00,East,89,2.0,5.0,56,0.00,,,0.00,,2013-06-11 14:22:00,
2013-06-11 08:42:00,61.0,45.0,-100.00,East,89,2.0,5.0,56,0.00,,,0.00,,2013-06-11 14:42:00,
2013-06-11 08:51:00,61.0,45.0,-100.00,East,89,2.0,5.0,56,0.00,,,0.00,,2013-06-11 14:51:00,
2013-06-11 09:12:00,64.0,38.0,-100.00,SSW,210,6.0,10.0,38,0.00,,,0.00,,2013-06-11 15:12:00,
2013-06-11 09:22:00,64.0,38.0,-100.00,SSW,210,6.0,10.0,38,0.00,,,0.00,,2013-06-11 15:22:00,
2013-06-11 09:33:00,64.0,38.0,-100.00,SSW,210,6.0,10.0,38,0.00,,,0.00,,2013-06-11 15:33:00,
2013-06-11 09:42:00,64.0,38.0,-100.00,SSW,210,6.0,10.0,38,0.00,,,0.00,,2013-06-11 15:42:00,
2013-06-11 09:52:00,64.0,38.0,-100.00,SSW,210,6.0,10.0,38,0.00,,,0.00,,2013-06-11 15:52:00,
2013-06-11 10:12:00,65.0,39.0,-100.00,SW,217,8.0,18.0,38,0.00,,,0.00,,2013-06-11 16:12:00,
2013-06-11 10:22:00,65.0,39.0,-100.00,SW,217,8.0,18.0,38,0.00,,,0.00,,2013-06-11 16:22:00,
2013-06-11 10:32:00,65.0,39.0,-100.00,SW,217,8.0,18.0,38,0.00,,,0.00,,2013-06-11 16:32:00,
2013-06-11 10:42:00,65.0,39.0,-100.00,SW,217,8.0,18.0,38,0.00,,,0.00,,2013-06-11 16:42:00,
2013-06-11 10:52:00,65.0,39.0,-100.00,SW,217,8.0,18.0,38,0.00,,,0.00,,2013-06-11 16:52:00,
2013-06-11 11:12:00,59.0,43.0,-100.00,WSW,239,5.0,8.0,56,0.00,,,0.00,,2013-06-11 17:12:00,
2013-06-11 11:22:00,59.0,43.0,-100.00,WSW,239,5.0,8.0,56,0.00,,,0.00,,2013-06-11 17:22:00,
2013-06-11 11:32:00,59.0,43.0,-100.00,WSW,239,5.0,8.0,56,0.00,,,0.00,,2013-06-11 17:32:00,
2013-06-11 11:42:00,59.0,43.0,-100.00,WSW,239,5.0,8.0,56,0.00,,,0.00,,2013-06-11 17:42:00,
2013-06-11 11:52:00,59.0,43.0,-100.00,WSW,239,5.0,8.0,56,0.00,,,0.00,,2013-06-11 17:52:00,
2013-06-11 12:12:00,60.0,44.0,-100.00,SW,229,5.0,6.0,54,0.00,,,0.00,,2013-06-11 18:12:00,
2013-06-11 12:22:00,60.0,44.0,-100.00,SW,229,5.0,6.0,54,0.00,,,0.00,,2013-06-11 18:22:00,
2013-06-11 12:32:00,60.0,44.0,-100.00,SW,229,5.0,6.0,54,0.00,,,0.00,,2013-06-11 18:32:00,
2013-06-11 12:42:00,60.0,44.0,-100.00,SW,229,5.0,6.0,54,0.00,,,0.00,,2013-06-11 18:42:00,
2013-06-11 12:52:00,60.0,44.0,-100.00,SW,229,5.0,6.0,54,0.00,,,0.00,,2013-06-11 18:52:00,
2013-06-11 13:12:00,61.0,46.0,-100.00,SE,142,2.0,4.0,56,0.00,,,0.00,,2013-06-11 19:12:00,
2013-06-11 13:22:00,61.0,46.0,-100.00,SE,142,2.0,4.0,56,0.00,,,0.00,,2013-06-11 19:22:00,
2013-06-11 13:32:00,61.0,46.0,-100.00,SE,142,2.0,4.0,56,0.00,,,0.00,,2013-06-11 19:32:00,
2013-06-11 13:42:00,61.0,46.0,-100.00,SE,142,2.0,4.0,56,0.00,,,0.00,,2013-06-11 19:42:00,
2013-06-11 13:52:00,61.0,46.0,-100.00,SE,142,2.0,4.0,56,0.00,,,0.00,,2013-06-11 19:52:00,
2013-06-11 14:12:00,66.0,41.0,-100.00,SW,229,7.0,10.0,40,0.00,,,0.00,,2013-06-11 20:12:00,
2013-06-11 14:22:00,66.0,41.0,-100.00,SW,229,7.0,10.0,40,0.00,,,0.00,,2013-06-11 20:22:00,
2013-06-11 14:32:00,66.0,41.0,-100.00,SW,229,7.0,10.0,40,0.00,,,0.00,,2013-06-11 20:32:00,
2013-06-11 14:42:00,66.0,41.0,-100.00,SW,229,7.0,10.0,40,0.00,,,0.00,,2013-06-11 20:42:00,
2013-06-11 14:52:00,66.0,41.0,-100.00,SW,229,7.0,10.0,40,0.00,,,0.00,,2013-06-11 20:52:00,
2013-06-11 15:12:00,70.0,42.0,-100.00,SSW,198,5.0,10.0,37,0.00,,,0.00,,2013-06-11 21:12:00,
2013-06-11 15:22:00,70.0,42.0,-100.00,SSW,198,5.0,10.0,37,0.00,,,0.00,,2013-06-11 21:22:00,
2013-06-11 15:33:00,70.0,42.0,-100.00,SSW,198,5.0,10.0,37,0.00,,,0.00,,2013-06-11 21:33:00,
2013-06-11 15:42:00,70.0,42.0,-100.00,SSW,198,5.0,10.0,37,0.00,,,0.00,,2013-06-11 21:42:00,
2013-06-11 15:52:00,70.0,42.0,-100.00,SSW,198,5.0,10.0,37,0.00,,,0.00,,2013-06-11 21:52:00,
2013-06-11 16:12:00,72.0,44.0,-100.00,SW,229,10.0,20.0,36,0.00,,,0.00,,2013-06-11 22:12:00,
2013-06-11 16:22:00,72.0,44.0,-100.00,SW,229,10.0,20.0,36,0.00,,,0.00,,2013-06-11 22:22:00,
2013-06-11 16:32:00,72.0,44.0,-100.00,SW,229,10.0,20.0,36,0.00,,,0.00,,2013-06-11 22:32:00,
2013-06-11 16:42:00,72.0,44.0,-100.00,SW,229,10.0,20.0,36,0.00,,,0.00,,2013-06-11 22:42:00,
2013-06-11 16:52:00,72.0,44.0,-100.00,SW,229,10.0,20.0,36,0.00,,,0.00,,2013-06-11 22:52:00,
2013-06-11 17:12:00,71.0,43.0,-100.00,SSW,194,12.0,23.0,37,0.00,,,0.00,,2013-06-11 23:12:00,
2013-06-11 17:22:00,71.0,43.0,-100.00,SSW,194,12.0,23.0,37,0.00,,,0.00,,2013-06-11 23:22:00,
2013-06-11 17:32:00,71.0,43.0,-100.00,SSW,194,12.0,23.0,37,0.00,,,0.00,,2013-06-11 23:32:00,
2013-06-11 17:42:00,71.0,43.0,-100.00,SSW,194,12.0,23.0,37,0.00,,,0.00,,2013-06-11 23:42:00,
2013-06-11 17:52:00,71.0,43.0,-100.00,SSW,194,12.0,23.0,37,0.00,,,0.00,,2013-06-11 23:52:00,
2013-06-11 18:12:00,72.0,43.0,-100.00,SSW,202,9.0,23.0,35,0.00,,,0.00,,2013-06-12 00:12:00,
2013-06-11 18:22:00,72.0,43.0,-100.00,SSW,202,9.0,23.0,35,0.00,,,0.00,,2013-06-12 00:22:00,
2013-06-11 18:32:00,72.0,43.0,-100.00,SSW,202,9.0,23.0,35,0.00,,,0.00,,2013-06-12 00:32:00,
2013-06-11 18:42:00,72.0,43.0,-100.00,SSW,202,9.0,23.0,35,0.00,,,0.00,,2013-06-12 00:42:00,
2013-06-11 18:51:00,72.0,43.0,-100.00,SSW,202,9.0,23.0,35,0.00,,,0.00,,2013-06-12 00:51:00,
2013-06-11 19:12:00,68.0,45.0,-100.00,SSW,192,8.0,17.0,43,0.00,,,0.00,,2013-06-12 01:12:00,
2013-06-11 19:22:00,68.0,45.0,-100.00,SSW,192,8.0,17.0,43,0.00,,,0.00,,2013-06-12 01:22:00,
2013-06-11 19:32:00,68.0,45.0,-100.00,SSW,192,8.0,17.0,43,0.00,,,0.00,,2013-06-12 01:32:00,
2013-06-11 19:42:00,68.0,45.0,-100.00,SSW,192,8.0,17.0,43,0.00,,,0.00,,2013-06-12 01:42:00,
2013-06-11 19:52:00,68.0,45.0,-100.00,SSW,192,8.0,17.0,43,0.00,,,0.00,,2013-06-12 01:52:00,
2013-06-11 20:12:00,70.0,43.0,-100.00,SSW,203,12.0,17.0,38,0.00,,,0.00,,2013-06-12 02:12:00,
2013-06-11 20:22:00,70.0,43.0,-100.00,SSW,203,12.0,17.0,38,0.00,,,0.00,,2013-06-12 02:22:00,
2013-06-11 20:32:00,70.0,43.0,-100.00,SSW,203,12.0,17.0,38,0.00,,,0.00,,2013-06-12 02:32:00,
2013-06-11 20:42:00,70.0,43.0,-100.00,SSW,203,12.0,17.0,38,0.00,,,0.00,,2013-06-12 02:42:00,
2013-06-11 20:52:00,70.0,43.0,-100.00,SSW,203,12.0,17.0,38,0.00,,,0.00,,2013-06-12 02:52:00,
2013-06-11 21:12:00,64.0,44.0,-100.00,SSW,200,5.0,10.0,47,0.00,,,0.00,,2013-06-12 03:12:00,
2013-06-11 21:22:00,64.0,44.0,-100.00,SSW,200,5.0,10.0,47,0.00,,,0.00,,2013-06-12 03:22:00,
2013-06-11 21:32:00,64.0,44.0,-100.00,SSW,200,5.0,10.0,47,0.00,,,0.00,,2013-06-12 03:32:00,
2013-06-11 21:42:00,64.0,44.0,-100.00,SSW,200,5.0,10.0,47,0.00,,,0.00,,2013-06-12 03:42:00,
2013-06-11 21:53:00,64.0,44.0,-100.00,SSW,200,5.0,10.0,47,0.00,,,0.00,,2013-06-12 03:53:00,
2013-06-11 22:13:00,60.0,44.0,-100.00,SSW,207,6.0,9.0,55,0.00,,,0.00,,2013-06-12 04:13:00,
2013-06-11 22:23:00,60.0,44.0,-100.00,SSW,207,6.0,9.0,55,0.00,,,0.00,,2013-06-12 04:23:00,
2013-06-11 22:33:00,60.0,44.0,-100.00,SSW,207,6.0,9.0,55,0.00,,,0.00,,2013-06-12 04:33:00,
2013-06-11 22:42:00,60.0,44.0,-100.00,SSW,207,6.0,9.0,55,0.00,,,0.00,,2013-06-12 04:42:00,
2013-06-11 22:52:00,60.0,44.0,-100.00,SSW,207,6.0,9.0,55,0.00,,,0.00,,2013-06-12 04:52:00,
2013-06-11 23:12:00,55.0,45.0,-100.00,North,356,1.0,1.0,68,0.00,,,0.00,,2013-06-12 05:12:00,
2013-06-11 23:22:00,55.0,45.0,-100.00,North,356,1.0,1.0,68,0.00,,,0.00,,2013-06-12 05:22:00,
2013-06-11 23:32:00,55.0,45.0,-100.00,North,356,1.0,1.0,68,0.00,,,0.00,,2013-06-12 05:32:00,
2013-06-11 23:42:00,55.0,45.0,-100.00,North,356,1.0,1.0,68,0.00,,,0.00,,2013-06-12 05:42:00,
2013-06-11 23:52:00,55.0,45.0,-100.00,North,356,1.0,1.0,68,0.00,,,0.00,,2013-06-12 05:52:00,